Sterling, IL

10:41 AM CDT on March 27, 2017 (GMT -0500)
Whiteside County-Bittorf

Weather History for KSQI - March, 2014

Change the Weather History Date:

Thursday, March 20, 2014

  Actual Average Record
Temperature  
Mean Temperature 38 °F -  
Max Temperature 48 °F 46 °F 82 °F (2012)
Min Temperature 28 °F 27 °F 12 °F (2013)
Degree Days  
Heating Degree Days 27    
Moisture  
Dew Point 28 °F    
Average Humidity 70    
Maximum Humidity 93    
Minimum Humidity 46    
Precipitation  
Precipitation 0.00 in - - ()
Sea Level Pressure  
Sea Level Pressure 30.02 in    
Wind  
Wind Speed 5 mph (NNW)    
Max Wind Speed 10 mph    
Max Gust Speed -    
Visibility 10 miles    
Events      
Averages and records for this station are not official NWS values.
T = Trace of Precipitation, MM = Missing Value Source: NWS Daily Summary

Daily Weather History Graph

Daily Weather History Graph

Search for Another Location

Airport or City:

Trip Planner

Search our weather history database for the weather conditions in past years. The results will help you decide how hot, cold, wet, or windy it might be!

Date:

Astronomy

Mar. 20, 2014 Rise Set
Actual Time 7:02 AM CDT 7:10 PM CDT
Civil Twilight 6:34 AM CDT 7:38 PM CDT
Nautical Twilight 6:01 AM CDT 8:11 PM CDT
Astronomical Twilight 5:28 AM CDT 8:44 PM CDT
Moon 11:34 PM CDT (3/20) 9:04 AM CDT (3/20)
Length of Visible Light 13h 04m
Length of Day
12h 08m
Waning Gibbous, 84% of the Moon is Illuminated
Mar 20
Waning Gibbous
Mar 23
Last Quarter
Mar 30
New
Apr 7
First Quarter
Apr 15
Full

Hourly Weather History & Observations

Time (CDT) Temp. Windchill Dew Point Humidity Pressure Visibility Wind Dir Wind Speed Gust Speed Precip Events Conditions
12:15 AM 30.2 °F 21.3 °F 24.8 °F 80% 30.04 in 10.0 mi West 10.4 mph - N/A   Scattered Clouds
12:35 AM 30.2 °F 22.6 °F 24.8 °F 80% 30.03 in 10.0 mi West 8.1 mph - N/A   Clear
12:55 AM 30.2 °F 22.6 °F 24.8 °F 80% 30.03 in 10.0 mi West 8.1 mph - N/A   Clear
1:15 AM 28.4 °F 21.2 °F 24.8 °F 86% 30.03 in 10.0 mi West 6.9 mph - N/A   Clear
1:35 AM 30.2 °F 23.4 °F 26.6 °F 86% 30.03 in 10.0 mi West 6.9 mph - N/A   Mostly Cloudy
1:55 AM 30.2 °F 24.3 °F 26.6 °F 86% 30.02 in 10.0 mi West 5.8 mph - N/A   Overcast
2:15 AM 30.2 °F 23.4 °F 26.6 °F 86% 30.03 in 10.0 mi West 6.9 mph - N/A   Mostly Cloudy
2:35 AM 30.2 °F 24.3 °F 26.6 °F 86% 30.02 in 10.0 mi West 5.8 mph - N/A   Partly Cloudy
2:55 AM 30.2 °F 25.4 °F 26.6 °F 86% 30.02 in 10.0 mi West 4.6 mph - N/A   Clear
3:15 AM 30.2 °F 25.4 °F 26.6 °F 86% 30.01 in 10.0 mi West 4.6 mph - N/A   Partly Cloudy
3:35 AM 30.2 °F 24.3 °F 26.6 °F 86% 30.01 in 10.0 mi WSW 5.8 mph - N/A   Mostly Cloudy
3:55 AM 30.2 °F 26.7 °F 26.6 °F 86% 30.00 in 10.0 mi West 3.5 mph - N/A   Scattered Clouds
4:15 AM 30.2 °F 25.4 °F 26.6 °F 86% 30.01 in 10.0 mi West 4.6 mph - N/A   Partly Cloudy
4:35 AM 32.0 °F 26.4 °F 26.6 °F 80% 30.02 in 10.0 mi West 5.8 mph - N/A   Scattered Clouds
4:55 AM 32.0 °F 28.7 °F 26.6 °F 80% 30.02 in 9.0 mi West 3.5 mph - N/A   Scattered Clouds
5:15 AM 32.0 °F 28.7 °F 26.6 °F 80% 30.03 in 10.0 mi West 3.5 mph - N/A   Mostly Cloudy
5:35 AM 30.2 °F - 26.6 °F 86% 30.03 in 10.0 mi Calm Calm - N/A   Overcast
5:55 AM 30.2 °F - 26.6 °F 86% 30.04 in 9.0 mi Calm Calm - N/A   Mostly Cloudy
6:15 AM 30.2 °F - 26.6 °F 86% 30.04 in 9.0 mi Calm Calm - N/A   Mostly Cloudy
6:35 AM 28.4 °F - 26.6 °F 93% 30.04 in 6.0 mi Calm Calm - N/A   Partly Cloudy
6:55 AM 28.4 °F - 24.8 °F 86% 30.03 in 6.0 mi Calm Calm - N/A   Partly Cloudy
7:15 AM 28.4 °F - 24.8 °F 86% 30.04 in 5.0 mi Calm Calm - N/A   Scattered Clouds
7:35 AM 28.4 °F - 24.8 °F 86% 30.04 in 3.0 mi Calm Calm - N/A   Mostly Cloudy
7:55 AM 30.2 °F - 26.6 °F 86% 30.05 in 5.0 mi Calm Calm - N/A   Mostly Cloudy
8:15 AM 32.0 °F - 28.4 °F 87% 30.04 in 5.0 mi Calm Calm - N/A   Mostly Cloudy
8:35 AM 32.0 °F - 28.4 °F 87% 30.05 in 7.0 mi Calm Calm - N/A   Overcast
8:55 AM 35.6 °F - 28.4 °F 75% 30.05 in 10.0 mi Calm Calm - N/A   Mostly Cloudy
9:15 AM 35.6 °F 32.8 °F 28.4 °F 75% 30.05 in 10.0 mi WSW 3.5 mph - N/A   Clear
9:35 AM 37.4 °F - 30.2 °F 75% 30.06 in 10.0 mi Calm Calm - N/A   Clear
9:55 AM 39.2 °F - 30.2 °F 70% 30.06 in 10.0 mi Calm Calm - N/A   Clear
10:15 AM 41.0 °F 39.0 °F 30.2 °F 65% 30.06 in 10.0 mi NNW 3.5 mph - N/A   Clear
10:35 AM 41.0 °F 36.4 °F 30.2 °F 65% 30.07 in 10.0 mi NW 6.9 mph - N/A   Clear
10:55 AM 41.0 °F 36.4 °F 30.2 °F 65% 30.06 in 10.0 mi WNW 6.9 mph - N/A   Scattered Clouds
11:15 AM 42.8 °F 38.6 °F 30.2 °F 61% 30.06 in 10.0 mi NW 6.9 mph - N/A   Mostly Cloudy
11:35 AM 42.8 °F 38.6 °F 30.2 °F 61% 30.06 in 10.0 mi North 6.9 mph - N/A   Mostly Cloudy
11:55 AM 44.6 °F 43.1 °F 30.2 °F 57% 30.05 in 10.0 mi NNW 3.5 mph - N/A   Partly Cloudy
12:15 PM 44.6 °F 41.4 °F 30.2 °F 57% 30.05 in 10.0 mi North 5.8 mph - N/A   Scattered Clouds
12:35 PM 44.6 °F 42.2 °F 30.2 °F 57% 30.05 in 10.0 mi WNW 4.6 mph - N/A   Partly Cloudy
12:55 PM 46.4 °F 45.2 °F 28.4 °F 50% 30.04 in 10.0 mi NNW 3.5 mph - N/A   Clear
1:15 PM 46.4 °F 45.2 °F 28.4 °F 50% 30.04 in 10.0 mi NNW 3.5 mph - N/A   Clear
1:35 PM 46.4 °F 42.9 °F 30.2 °F 53% 30.03 in 10.0 mi NNW 6.9 mph - N/A   Clear
1:55 PM 46.4 °F 43.5 °F 28.4 °F 50% 30.03 in 10.0 mi NNE 5.8 mph - N/A   Clear
2:15 PM 46.4 °F - 30.2 °F 53% 30.02 in 10.0 mi Calm Calm - N/A   Clear
2:35 PM 48.2 °F - 30.2 °F 50% 30.02 in 10.0 mi NNW 5.8 mph - N/A   Clear
2:55 PM 48.2 °F - 28.4 °F 46% 30.01 in 10.0 mi NW 5.8 mph - N/A   Clear
3:15 PM 46.4 °F 44.3 °F 28.4 °F 50% 30.01 in 10.0 mi SE 4.6 mph - N/A   Clear
3:35 PM 48.2 °F - 28.4 °F 46% 30.00 in 10.0 mi Calm Calm - N/A   Clear
3:55 PM 46.4 °F - 28.4 °F 50% 30.00 in 10.0 mi Calm Calm - N/A   Clear
4:15 PM 46.4 °F 42.9 °F 30.2 °F 53% 29.99 in 10.0 mi East 6.9 mph - N/A   Clear
4:35 PM 48.2 °F - 28.4 °F 46% 29.99 in 10.0 mi North 3.5 mph - N/A   Clear
4:55 PM 48.2 °F - 28.4 °F 46% 29.99 in 10.0 mi ENE 4.6 mph - N/A   Clear
5:15 PM 46.4 °F - 28.4 °F 50% 30.00 in 10.0 mi Calm Calm - N/A   Clear
5:35 PM 46.4 °F 45.2 °F 28.4 °F 50% 30.00 in 10.0 mi SE 3.5 mph - N/A   Clear
5:55 PM 44.6 °F 42.2 °F 26.6 °F 49% 30.00 in 10.0 mi SSE 4.6 mph - N/A   Clear
6:15 PM 44.6 °F 41.4 °F 28.4 °F 53% 30.00 in 10.0 mi ESE 5.8 mph - N/A   Clear
6:35 PM 44.6 °F 41.4 °F 30.2 °F 57% 29.99 in 10.0 mi East 5.8 mph - N/A   Clear
6:55 PM 42.8 °F 39.3 °F 30.2 °F 61% 29.99 in 10.0 mi East 5.8 mph - N/A   Clear
7:15 PM 39.2 °F 35.9 °F 30.2 °F 70% 30.00 in 10.0 mi SE 4.6 mph - N/A   Clear
7:35 PM 39.2 °F 37.0 °F 28.4 °F 65% 30.00 in 10.0 mi SE 3.5 mph - N/A   Clear
7:55 PM 37.4 °F - 32.0 °F 81% 30.01 in 10.0 mi Calm Calm - N/A   Clear
8:15 PM 37.4 °F 34.9 °F 30.2 °F 75% 30.01 in 10.0 mi ESE 3.5 mph - N/A   Clear
8:35 PM 33.8 °F 26.4 °F 30.2 °F 87% 29.99 in 10.0 mi ENE 9.2 mph - N/A   Clear
8:55 PM 33.8 °F 28.6 °F 28.4 °F 81% 29.99 in 10.0 mi East 5.8 mph - N/A   Clear
9:15 PM 35.6 °F 30.7 °F 28.4 °F 75% 29.98 in 10.0 mi East 5.8 mph - N/A   Clear
9:35 PM 35.6 °F 30.7 °F 28.4 °F 75% 29.99 in 10.0 mi ESE 5.8 mph - N/A   Mostly Cloudy
9:55 PM 35.6 °F 32.8 °F 28.4 °F 75% 29.99 in 10.0 mi ESE 3.5 mph - N/A   Overcast
10:15 PM 35.6 °F 28.6 °F 30.2 °F 81% 29.97 in 10.0 mi East 9.2 mph - N/A   Overcast
10:35 PM 35.6 °F 28.0 °F 28.4 °F 75% 29.97 in 10.0 mi East 10.4 mph - N/A   Mostly Cloudy
10:55 PM 35.6 °F 28.6 °F 28.4 °F 75% 29.97 in 10.0 mi East 9.2 mph - N/A   Mostly Cloudy
11:15 PM 37.4 °F 32.1 °F 28.4 °F 70% 29.98 in 10.0 mi East 6.9 mph - N/A   Overcast
11:35 PM 37.4 °F 30.8 °F 26.6 °F 65% 29.98 in 10.0 mi NE 9.2 mph - N/A   Mostly Cloudy
11:55 PM 37.4 °F 30.3 °F 28.4 °F 70% 29.97 in 10.0 mi East 10.4 mph - N/A   Overcast